Location: Newark
(51.3318°N, 0.0053°E)
Time: 11:09:14
(UTC+00:00)

MOZHAYETS 4 - Pass Details

Date: 27 June 2022
Orbit: 660 x 679 km, 98.2° (Epoch: 10 August)

Event Time Altitude Azimuth Distance (km) Brightness Sun altitude
Exits shadow 02:04:31 - 162° (SSE) 2,632 10.4 -10.7°
Reaches altitude 10° 02:05:47 10° 162° (SSE) 2,112 9.9 -10.6°
Maximum altitude 02:10:25 86° 74° (ENE) 686 7.8 -10.3°
Drops below altitude 10° 02:15:03 10° 346° (NNW) 2,119 11.0 -9.9°
Sets 02:17:18 0° 346° (NNW) 3,035 11.9 -9.7°
